Pensacola, FL

8:11 AM CST on February 07, 2016 (GMT -0600)
Pensacola Naval Air Station

Weather History for KNPA - March, 2013

Change the Weather History Date:

Saturday, March 2, 2013

  Actual Average Record
Temperature  
Mean Temperature 42 °F -  
Max Temperature 50 °F 65 °F 75 °F (2001)
Min Temperature 33 °F 47 °F 33 °F (2013)
Degree Days  
Heating Degree Days 24    
Moisture  
Dew Point 26 °F    
Average Humidity 56    
Maximum Humidity 82    
Minimum Humidity 36    
Precipitation  
Precipitation 0.00 in - - ()
Sea Level Pressure  
Sea Level Pressure 30.14 in    
Wind  
Wind Speed 7 mph (NNW)    
Max Wind Speed 17 mph    
Max Gust Speed 25 mph    
Visibility 10 miles    
Events      
Averages and records for this station are not official NWS values.
T = Trace of Precipitation, MM = Missing Value Source: NWS Daily Summary

Daily Weather History Graph

Daily Weather History Graph

Search for Another Location

Airport or City:

Trip Planner

Search our weather history database for the weather conditions in past years. The results will help you decide how hot, cold, wet, or windy it might be!

Date:

Astronomy

Mar. 02, 2013 Rise Set
Actual Time 6:14 AM CST 5:49 PM CST
Civil Twilight 5:49 AM CST 6:13 PM CST
Nautical Twilight 5:22 AM CST 6:41 PM CST
Astronomical Twilight 4:54 AM CST 7:08 PM CST
Moon 11:01 PM CST (3/2) 9:06 AM CST (3/2)
Length of Visible Light 12h 23m
Length of Day
11h 35m
Waning Gibbous, 74% of the Moon is Illuminated
Mar 2
Waning Gibbous
Mar 4
Last Quarter
Mar 11
New
Mar 19
First Quarter
Mar 27
Full

Hourly Weather History & Observations

Time (CST) Temp. Windchill Dew Point Humidity Pressure Visibility Wind Dir Wind Speed Gust Speed Precip Events Conditions
12:56 AM 37.9 °F 34.4 °F 30.0 °F 73% 30.14 in 10.0 mi NNW 4.6 mph - N/A   Clear
1:56 AM 37.0 °F - 30.9 °F 79% 30.13 in 10.0 mi Calm Calm - N/A   Clear
2:56 AM 37.0 °F 33.3 °F 28.9 °F 73% 30.12 in 10.0 mi NW 4.6 mph - N/A   Clear
3:56 AM 35.1 °F 32.2 °F 28.0 °F 76% 30.12 in 10.0 mi WNW 3.5 mph - N/A   Clear
4:56 AM 34.0 °F - 28.0 °F 79% 30.12 in 10.0 mi Calm Calm - N/A   Clear
5:56 AM 33.1 °F 30.0 °F 28.0 °F 82% 30.14 in 10.0 mi NW 3.5 mph - N/A   Clear
6:56 AM 36.0 °F 31.1 °F 28.9 °F 76% 30.16 in 10.0 mi NNW 5.8 mph - N/A   Clear
7:56 AM 39.9 °F 34.5 °F 28.0 °F 63% 30.19 in 10.0 mi NW 8.1 mph 16.1 mph N/A   Partly Cloudy
8:56 AM 43.0 °F 36.4 °F 27.0 °F 53% 30.18 in 10.0 mi NNW 12.7 mph 16.1 mph N/A   Clear
9:56 AM 45.0 °F 38.5 °F 23.0 °F 42% 30.17 in 10.0 mi North 13.8 mph 21.9 mph N/A   Partly Cloudy
10:56 AM 46.9 °F - 24.1 °F 41% 30.15 in 10.0 mi NW 13.8 mph 23.0 mph N/A   Partly Cloudy
11:56 AM 48.0 °F - 24.1 °F 39% 30.12 in 10.0 mi NW 12.7 mph 25.3 mph N/A   Scattered Clouds
12:56 PM 50.0 °F - 25.0 °F 38% 30.10 in 10.0 mi NW 10.4 mph 19.6 mph N/A   Mostly Cloudy
1:56 PM 50.0 °F - 24.1 °F 36% 30.08 in 10.0 mi NNW 17.3 mph 23.0 mph N/A   Mostly Cloudy
2:56 PM 46.9 °F - 25.0 °F 42% 30.08 in 10.0 mi NNW 15.0 mph 21.9 mph N/A   Mostly Cloudy
3:56 PM 45.0 °F 38.9 °F 23.0 °F 42% 30.09 in 10.0 mi NNW 12.7 mph 19.6 mph N/A   Mostly Cloudy
4:56 PM 43.0 °F 36.0 °F 24.1 °F 47% 30.11 in 10.0 mi NNW 13.8 mph 19.6 mph N/A   Mostly Cloudy
5:31 PM 42.8 °F 36.6 °F 24.8 °F 49% 30.12 in 10.0 mi North 11.5 mph - N/A   Mostly Cloudy
5:56 PM 42.1 °F 36.1 °F 23.0 °F 47% 30.14 in 10.0 mi NNW 10.4 mph 18.4 mph N/A   Mostly Cloudy
6:56 PM 41.0 °F 33.9 °F 25.0 °F 53% 30.15 in 10.0 mi North 12.7 mph 19.6 mph N/A   Overcast
7:56 PM 41.0 °F 35.8 °F 25.0 °F 53% 30.18 in 10.0 mi North 8.1 mph 16.1 mph N/A   Overcast
8:56 PM 39.9 °F 33.9 °F 25.0 °F 55% 30.18 in 10.0 mi North 9.2 mph - N/A   Overcast
9:56 PM 39.9 °F 34.5 °F 25.0 °F 55% 30.19 in 10.0 mi NNW 8.1 mph 17.3 mph N/A   Overcast
10:56 PM 39.9 °F 34.5 °F 25.0 °F 55% 30.18 in 10.0 mi North 8.1 mph - N/A   Overcast
11:56 PM 39.0 °F 33.4 °F 25.0 °F 57% 30.18 in 10.0 mi NNW 8.1 mph - N/A   Overcast